Preview of NWS' New Version of Forecast
This preview is not operational and should not be used for support decisions.

Regional Weather Roundup (RWR)

Issued by National Weather Service (NWS)

                            
000
ASUS44 KJAN 191110
RWRMS 

MISSISSIPPI HOURLY WEATHER ROUNDUP
NATIONAL WEATHER SERVICE JACKSON MS
600 AM CDT THU SEP 19 2019

NOTE: "FAIR: INDICATES FEW OR NO CLOUDS BELOW 12,000 FEET WITH NO
SIGNIFICANT WEATHER AND/OR OBSTRUCTIONS TO VISIBILITY.

MSZ001>002-007>008-010>013-018>021-025>028-034>036-191200-
NORTHWEST MISSISSIPPI
  
CITY           SKY/WX    TMP DP  RH WIND       PRES   REMARKS
BATESVILLE       N/A     68  68 100 CALM      29.99R                  
CLARKSDALE       N/A     70  70 100 CALM      29.97S                  
CLEVELAND      FAIR      73  73 100 CALM      29.97R                  
GREENWOOD      FAIR      72  68  87 CALM      29.97R                  
GREENVILLE     FAIR      72  70  93 CALM      29.96R                  
OLIVE BRANCH   CLEAR     73  64  73 SE6       29.99R                  
OXFORD         FAIR      73  66  78 SE6G14    30.01R                  
TUNICA           N/A     68  66  94 CALM      29.99R                  
WINONA         FAIR      69  69 100 CALM      29.98R                  
$$

MSZ003>006-009-014>017-022>024-029>033-037>039-191200-
NORTHEAST MISSISSIPPI
  
CITY           SKY/WX    TMP DP  RH WIND       PRES   REMARKS
ABERDEEN       FAIR      66  50  55 CALM      30.03R HAZE             
COLUMBUS AFB   FAIR      71  68  92 CALM      30.01R                  
CORINTH        FAIR      66  66 100 S3        30.02S                  
GOLDN TRIANGLE FAIR      76  71  85 SE8       30.02R                  
STARKVILLE     FAIR      72  68  88 E3        30.02R                  
TUPELO         FAIR      75  67  76 SE5       30.02R                  
$$

MSZ040-058-191200-
CENTRAL MISSISSIPPI
  
CITY           SKY/WX    TMP DP  RH WIND       PRES   REMARKS
JACKSON INTL   FAIR      71  68  90 CALM      29.97R                  
JACKSON HAWKNS FAIR      73  70  90 CALM      29.98R                  
MADISON        FAIR      70  70 100 CALM      29.98S                  
MERIDIAN KEY   FAIR      75  71  87 CALM      29.99R                  
MERIDIAN NAS   FAIR      73  68  84 E8        30.00R                  
RAYMOND        FAIR      70  70 100 CALM      29.97R FOG              
VICKSBURG VKS  SUNNY     70  70 100 CALM      29.97R FOG              
$$

MSZ059>079-191200-
SOUTH MISSISSIPPI
  
CITY           SKY/WX    TMP DP  RH WIND       PRES   REMARKS
BROOKHAVEN     FAIR      70  68  94 CALM      30.00R                  
HATTIESBURG    FAIR      72  70  93 CALM      29.98R                  
LAUREL         SUNNY     72  70  94 W3        29.98R                  
MCCOMB         FAIR      70  68  93 CALM      29.98R                  
NATCHEZ        FAIR      71  69  93 CALM      29.98R                  
PINE BELT        N/A    N/A N/A N/A MISG        N/A                   
$$

MSZ080>082-191200-
COASTAL MISSISSIPPI
  
CITY           SKY/WX    TMP DP  RH WIND       PRES   REMARKS
BILOXI         FAIR      74  71  89 CALM      29.95R                  
PASCAGOULA     NOT AVBL                                               
GULFPORT       NOT AVBL                                               
$$

LAZ007>009-015>016-023>026-191200-
NORTHEAST LOUISIANA
  
CITY           SKY/WX    TMP DP  RH WIND       PRES   REMARKS
BASTROP        FAIR      71  70  98 CALM      29.98R                  
TALLULAH/VBURG FAIR      71  68  90 CALM      29.97R                  
VIDALIA        PTSUNNY  N/A N/A N/A E3        29.96R                  
$$